Time,TemperatureF,DewpointF,PressureIn,WindDirection,WindDirectionDegrees,WindSpeedMPH,WindSpeedGustMPH,Humidity,HourlyPrecipIn,Conditions,Clouds,dailyrainin,SoftwareType,DateUTC
2013-03-01 04:15:00,29.0,27.5,29.90,West,270,12.0,12.0,94,0.00,,,0.00,Weather View 32 v70,2013-03-01 09:15:00,
2013-03-01 04:30:00,29.0,27.5,29.90,WNW,292,6.0,12.0,94,0.00,,,0.00,Weather View 32 v70,2013-03-01 09:30:00,
2013-03-01 04:45:00,29.0,27.5,29.91,WNW,292,7.0,12.0,94,0.00,,,0.00,Weather View 32 v70,2013-03-01 09:45:00,
2013-03-01 05:00:00,29.0,27.5,29.91,West,270,7.0,12.0,94,0.00,,,0.00,Weather View 32 v70,2013-03-01 10:00:00,
2013-03-01 05:15:00,29.0,27.5,29.91,NW,315,7.0,12.0,94,0.00,,,0.00,Weather View 32 v70,2013-03-01 10:15:00,
2013-03-01 05:30:00,29.0,27.5,29.91,NW,315,9.0,11.0,94,0.00,,,0.00,Weather View 32 v70,2013-03-01 10:30:00,
2013-03-01 05:45:00,29.0,27.5,29.92,NW,315,6.0,13.0,94,0.00,,,0.00,Weather View 32 v70,2013-03-01 10:45:00,
2013-03-01 06:00:00,29.0,27.5,29.92,SW,225,3.0,13.0,94,0.00,,,0.00,Weather View 32 v70,2013-03-01 11:00:00,
2013-03-01 06:15:00,29.0,27.5,29.92,South,180,6.0,13.0,94,0.00,,,0.00,Weather View 32 v70,2013-03-01 11:15:00,
2013-03-01 06:30:00,29.0,27.5,29.92,NW,315,6.0,13.0,94,0.00,,,0.00,Weather View 32 v70,2013-03-01 11:30:00,
2013-03-01 06:45:00,29.0,27.5,29.93,West,270,7.0,13.0,94,0.00,,,0.00,Weather View 32 v70,2013-03-01 11:45:00,
2013-03-01 07:00:00,29.0,27.5,29.93,NW,315,1.0,12.0,94,0.00,,,0.00,Weather View 32 v70,2013-03-01 12:00:00,
2013-03-01 07:15:00,29.0,27.5,29.94,WNW,292,3.0,12.0,94,0.00,,,0.00,Weather View 32 v70,2013-03-01 12:15:00,
2013-03-01 07:30:00,28.0,26.5,29.94,NNW,337,2.0,12.0,94,0.00,,,0.00,Weather View 32 v70,2013-03-01 12:30:00,
2013-03-01 07:45:00,29.0,27.5,29.94,NW,315,9.0,12.0,94,0.00,,,0.00,Weather View 32 v70,2013-03-01 12:45:00,
2013-03-01 08:00:00,29.0,27.5,29.94,NNW,337,7.0,11.0,94,0.00,,,0.00,Weather View 32 v70,2013-03-01 13:00:00,
2013-03-01 15:30:00,30.0,28.7,29.95,NW,315,0.0,7.0,95,0.00,,,0.00,Weather View 32 v70,2013-03-01 20:30:00,
2013-03-01 15:45:00,31.0,29.7,29.95,NW,315,0.0,7.0,95,0.00,,,0.00,Weather View 32 v70,2013-03-01 20:45:00,
2013-03-01 16:00:00,31.0,29.7,29.95,NW,315,0.0,7.0,95,0.01,,,0.01,Weather View 32 v70,2013-03-01 21:00:00,
2013-03-01 16:15:00,31.0,29.7,29.95,NW,315,0.0,7.0,95,0.01,,,0.01,Weather View 32 v70,2013-03-01 21:15:00,
2013-03-01 16:30:00,30.0,28.7,29.95,NW,315,6.0,8.0,95,0.01,,,0.01,Weather View 32 v70,2013-03-01 21:30:00,
2013-03-01 16:45:00,30.0,28.7,29.95,NW,315,2.0,8.0,95,0.01,,,0.01,Weather View 32 v70,2013-03-01 21:45:00,
2013-03-01 17:00:00,30.0,28.7,29.95,NW,315,0.0,8.0,95,0.00,,,0.01,Weather View 32 v70,2013-03-01 22:00:00,
2013-03-01 17:15:00,30.0,28.7,29.95,NW,315,3.0,8.0,95,0.00,,,0.01,Weather View 32 v70,2013-03-01 22:15:00,
2013-03-01 17:30:00,30.0,28.7,29.96,NW,315,3.0,8.0,95,0.01,,,0.02,Weather View 32 v70,2013-03-01 22:30:00,
2013-03-01 17:45:00,29.0,27.5,29.96,NW,315,3.0,8.0,94,0.01,,,0.02,Weather View 32 v70,2013-03-01 22:45:00,
2013-03-01 18:00:00,29.0,27.5,29.97,NW,315,1.0,10.0,94,0.01,,,0.02,Weather View 32 v70,2013-03-01 23:00:00,
2013-03-01 18:15:00,29.0,27.5,29.98,NW,315,4.0,10.0,94,0.01,,,0.02,Weather View 32 v70,2013-03-01 23:15:00,
2013-03-01 18:30:00,29.0,27.5,29.98,NW,315,7.0,10.0,94,0.00,,,0.02,Weather View 32 v70,2013-03-01 23:30:00,
2013-03-01 18:45:00,29.0,27.5,29.98,NW,315,6.0,10.0,94,0.00,,,0.02,Weather View 32 v70,2013-03-01 23:45:00,
2013-03-01 19:00:00,29.0,27.5,29.98,NW,315,6.0,9.0,94,0.00,,,0.02,Weather View 32 v70,2013-03-02 00:00:00,
2013-03-01 19:15:00,29.0,27.5,29.98,NW,315,1.0,9.0,94,0.00,,,0.02,Weather View 32 v70,2013-03-02 00:15:00,
2013-03-01 19:30:00,29.0,27.5,29.98,NW,315,1.0,9.0,94,0.00,,,0.02,Weather View 32 v70,2013-03-02 00:30:00,
2013-03-01 19:45:00,29.0,27.5,29.99,NW,315,2.0,8.0,94,0.00,,,0.02,Weather View 32 v70,2013-03-02 00:45:00,
2013-03-01 20:00:00,28.0,26.5,29.99,NW,315,6.0,9.0,94,0.00,,,0.02,Weather View 32 v70,2013-03-02 01:00:00,
2013-03-01 20:15:00,28.0,26.5,29.99,NW,315,0.0,9.0,94,0.00,,,0.02,Weather View 32 v70,2013-03-02 01:15:00,
2013-03-01 20:30:00,28.0,26.5,29.99,NW,315,6.0,9.0,94,0.00,,,0.02,Weather View 32 v70,2013-03-02 01:30:00,
2013-03-01 20:45:00,28.0,26.5,29.99,NW,315,7.0,9.0,94,0.00,,,0.02,Weather View 32 v70,2013-03-02 01:45:00,
2013-03-01 21:00:00,28.0,26.5,29.99,NW,315,5.0,12.0,94,0.00,,,0.02,Weather View 32 v70,2013-03-02 02:00:00,
2013-03-01 21:15:00,28.0,26.5,29.98,NW,315,4.0,12.0,94,0.00,,,0.02,Weather View 32 v70,2013-03-02 02:15:00,
2013-03-01 21:30:00,28.0,26.5,29.98,NW,315,2.0,12.0,94,0.00,,,0.02,Weather View 32 v70,2013-03-02 02:30:00,
2013-03-01 21:35:00,28.0,26.5,29.98,NW,315,2.0,12.0,94,0.00,,,0.02,Weather View 32 v70,2013-03-02 02:35:00,
2013-03-01 21:45:00,27.0,25.5,29.98,NW,315,2.0,12.0,94,0.00,,,0.02,Weather View 32 v70,2013-03-02 02:45:00,
2013-03-01 22:00:00,27.0,25.5,29.98,NW,315,1.0,7.0,94,0.00,,,0.02,Weather View 32 v70,2013-03-02 03:00:00,
2013-03-01 22:15:00,27.0,25.5,29.99,NW,315,6.0,7.0,94,0.00,,,0.02,Weather View 32 v70,2013-03-02 03:15:00,
2013-03-01 22:30:00,27.0,25.5,30.00,NW,315,2.0,12.0,94,0.00,,,0.02,Weather View 32 v70,2013-03-02 03:30:00,
2013-03-01 22:36:00,27.0,25.5,30.00,NW,315,2.0,12.0,94,0.00,,,0.02,Weather View 32 v70,2013-03-02 03:36:00,
2013-03-01 22:45:00,27.0,25.5,29.99,NW,315,6.0,12.0,94,0.00,,,0.02,Weather View 32 v70,2013-03-02 03:45:00,
2013-03-01 23:00:00,27.0,25.5,30.00,NW,315,7.0,12.0,94,0.00,,,0.02,Weather View 32 v70,2013-03-02 04:00:00,
2013-03-01 23:15:00,27.0,25.5,30.00,NW,315,3.0,12.0,94,0.00,,,0.02,Weather View 32 v70,2013-03-02 04:15:00,
2013-03-01 23:30:00,26.0,24.5,30.00,NW,315,5.0,10.0,94,0.00,,,0.02,Weather View 32 v70,2013-03-02 04:30:00,
2013-03-01 23:36:00,26.0,24.5,30.00,NW,315,5.0,10.0,94,0.00,,,0.02,Weather View 32 v70,2013-03-02 04:36:00,
2013-03-01 23:45:00,26.0,24.5,29.99,NW,315,5.0,10.0,94,0.00,,,0.02,Weather View 32 v70,2013-03-02 04:45:00,